| time (UTC) | temp F | wind direction | speed MPH | gust MPH | rain 1hr in | rain 24hr in | rain mn in | humidity % | barometer mb |
| 20260504173055 | 71 | 0 | 0.0 | 7.0 | 0.00 | 0.00 | 0.00 | 51 | 1017.9 |
| 20260504171548 | 72 | 0 | 0.0 | 2.0 | 0.00 | 0.00 | 0.00 | 52 | 1018.2 |
| 20260504081550 | 40 | 0 | 0.0 | 0.0 | 0.00 | 0.00 | 0.00 | 98 | 1018.9 |
| 20260504044600 | 42 | 0 | 0.0 | 0.0 | 0.00 | 0.00 | 0.00 | 96 | 1019.9 |
| 20260504043058 | 43 | 0 | 0.0 | 0.0 | 0.00 | 0.00 | 0.00 | 96 | 1019.7 |
| 20260504041551 | 43 | 0 | 0.0 | 0.0 | 0.00 | 0.00 | 0.00 | 95 | 1019.6 |
| 20260504040053 | 43 | 0 | 0.0 | 0.0 | 0.00 | 0.00 | 0.00 | 95 | 1019.8 |
| 20260504034551 | 43 | 0 | 0.0 | 0.0 | 0.00 | 0.00 | 0.00 | 95 | 1019.6 |
| 20260504033049 | 44 | 0 | 0.0 | 0.0 | 0.00 | 0.00 | 0.00 | 94 | 1019.7 |
| 20260504031553 | 44 | 0 | 0.0 | 0.0 | 0.00 | 0.00 | 0.00 | 94 | 1019.6 |
| 20260504030052 | 44 | 0 | 0.0 | 0.0 | 0.00 | 0.00 | 0.00 | 93 | 1019.9 |
| 20260504024549 | 45 | 0 | 0.0 | 0.0 | 0.00 | 0.00 | 0.00 | 93 | 1019.7 |
| 20260504023057 | 46 | 0 | 0.0 | 0.0 | 0.00 | 0.00 | 0.00 | 92 | 1019.7 |
| 20260504021555 | 46 | 0 | 0.0 | 0.0 | 0.00 | 0.00 | 0.00 | 92 | 1019.6 |
| 20260504020126 | 47 | 0 | 0.0 | 0.0 | 0.00 | 0.00 | 0.00 | 91 | 1019.3 |
| 20260504014601 | 48 | 0 | 0.0 | 0.0 | 0.00 | 0.00 | 0.00 | 90 | 1019.3 |
| 20260504013116 | 49 | 0 | 0.0 | 0.0 | 0.00 | 0.00 | 0.00 | 89 | 1019.1 |
| 20260504011553 | 50 | 0 | 0.0 | 0.0 | 0.00 | 0.00 | 0.00 | 87 | 1018.9 |
| 20260504010054 | 51 | 0 | 0.0 | 0.0 | 0.00 | 0.00 | 0.00 | 86 | 1018.7 |
| 20260504004623 | 52 | 0 | 0.0 | 0.0 | 0.00 | 0.00 | 0.00 | 84 | 1018.6 |
| 20260504003059 | 53 | 0 | 0.0 | 0.0 | 0.00 | 0.00 | 0.00 | 82 | 1018.6 |
| 20260504001622 | 55 | 0 | 0.0 | 0.0 | 0.00 | 0.00 | 0.00 | 76 | 1018.6 |
| 20260504000110 | 57 | 0 | 0.0 | 0.0 | 0.00 | 0.00 | 0.00 | 71 | 1018.5 |
| 20260503234604 | 58 | 0 | 0.0 | 0.0 | 0.00 | 0.00 | 0.00 | 67 | 1018.4 |
| 20260503233052 | 60 | 0 | 0.0 | 0.0 | 0.00 | 0.00 | 0.00 | 60 | 1018.6 |
| 20260503231550 | 61 | 0 | 0.0 | 0.0 | 0.00 | 0.00 | 0.00 | 56 | 1018.5 |
| 20260503230112 | 62 | 0 | 0.0 | 0.0 | 0.00 | 0.00 | 0.00 | 53 | 1018.6 |
| 20260503224549 | 62 | 0 | 0.0 | 1.0 | 0.00 | 0.00 | 0.00 | 51 | 1018.6 |
| 20260503223051 | 63 | 0 | 0.0 | 0.0 | 0.00 | 0.00 | 0.00 | 51 | 1018.8 |
| 20260503221603 | 63 | 0 | 0.0 | 2.0 | 0.00 | 0.00 | 0.00 | 49 | 1018.8 |
| 20260503220055 | 64 | 0 | 0.0 | 2.0 | 0.00 | 0.00 | 0.00 | 48 | 1019.0 |
| 20260503214558 | 64 | 0 | 0.0 | 5.0 | 0.00 | 0.00 | 0.00 | 47 | 1018.9 |
| 20260503213056 | 64 | 0 | 0.0 | 2.0 | 0.00 | 0.00 | 0.00 | 47 | 1018.9 |
| 20260503211551 | 64 | 0 | 0.0 | 4.0 | 0.00 | 0.00 | 0.00 | 47 | 1019.1 |
| 20260503210053 | 64 | 149 | 0.0 | 7.0 | 0.00 | 0.00 | 0.00 | 47 | 1019.2 |
| 20260503204551 | 64 | 195 | 0.0 | 2.0 | 0.00 | 0.00 | 0.00 | 46 | 1019.4 |
| 20260503203108 | 64 | 0 | 0.0 | 3.0 | 0.00 | 0.00 | 0.00 | 41 | 1019.5 |
| 20260503201555 | 64 | 0 | 0.0 | 2.0 | 0.00 | 0.00 | 0.00 | 42 | 1019.9 |
| 20260503200049 | 64 | 0 | 0.0 | 2.0 | 0.00 | 0.00 | 0.00 | 46 | 1020.1 |
| 20260503194551 | 64 | 299 | 0.0 | 4.0 | 0.00 | 0.00 | 0.00 | 46 | 1020.4 |
| 20260503193047 | 65 | 0 | 0.0 | 1.0 | 0.00 | 0.00 | 0.00 | 46 | 1020.7 |
| 20260503191553 | 65 | 101 | 0.0 | 2.0 | 0.00 | 0.00 | 0.00 | 47 | 1020.6 |
| 20260503190057 | 65 | 102 | 0.0 | 2.0 | 0.00 | 0.00 | 0.00 | 47 | 1020.9 |
| 20260503184552 | 65 | 0 | 0.0 | 4.0 | 0.00 | 0.00 | 0.00 | 50 | 1021.1 |
| 20260503183050 | 65 | 0 | 0.0 | 2.0 | 0.00 | 0.00 | 0.00 | 51 | 1021.1 |
| 20260503181558 | 65 | 280 | 0.0 | 3.0 | 0.00 | 0.00 | 0.00 | 49 | 1021.1 |
| 20260503180055 | 64 | 197 | 1.0 | 4.0 | 0.00 | 0.00 | 0.00 | 51 | 1021.3 |
| 20260503174548 | 64 | 134 | 0.0 | 5.0 | 0.00 | 0.00 | 0.00 | 50 | 1021.3 |